FW5947 Weather Reports


Display with metric or nautical units.
time (UTC)temp
F
wind
direction
speed
MPH
gust
MPH
rain 1hr
in
rain 24hr
in
rain mn
in
humidity
%
barometer
mb
20260505022044 57 175 0.0 0.0 0.00 0.00 0.00 61 995.1
20260505021006 58 172 0.0 0.0 0.00 0.00 0.00 60 995.3
20260505020031 58 173 0.0 0.0 0.00 0.00 0.00 59 995.5
20260505015035 58 193 1.0 2.0 0.00 0.00 0.00 59 995.6
20260505014012 59 180 0.0 0.0 0.00 0.00 0.00 59 995.6
20260505013040 58 180 0.0 0.0 0.00 0.00 0.00 60 995.5
20260505012028 58 180 0.0 0.0 0.00 0.00 0.00 61 995.3
20260505011014 60 179 1.0 2.0 0.00 0.00 0.00 58 995.2
20260505010031 60 180 1.0 2.0 0.00 0.00 0.00 56 995.2
20260505005046 62 180 1.0 2.0 0.00 0.00 0.00 54 995.2
20260505004022 62 179 0.0 0.0 0.00 0.00 0.00 54 995.1
20260505003007 64 178 0.0 0.0 0.00 0.00 0.00 50 995.2
20260505002010 65 165 0.0 0.0 0.00 0.00 0.00 48 995.2
20260505001022 66 164 0.0 0.0 0.00 0.00 0.00 46 995.0
20260505000002 67 157 0.0 0.0 0.00 0.00 0.00 46 994.9
20260504234046 69 167 0.0 0.0 0.00 0.00 0.00 41 994.9
20260504233012 69 157 1.0 2.0 0.00 0.00 0.00 39 995.0
20260504232026 70 181 0.0 0.0 0.00 0.00 0.00 39 994.9
20260504231031 70 161 0.0 0.0 0.00 0.00 0.00 39 994.9
20260504230006 70 168 0.0 0.0 0.00 0.00 0.00 37 994.8
20260504225017 71 130 2.0 3.0 0.00 0.00 0.00 36 994.7
20260504224027 72 252 3.0 3.0 0.00 0.00 0.00 37 994.6
20260504223018 72 166 3.0 3.0 0.00 0.00 0.00 36 994.7
20260504222026 73 147 1.0 2.0 0.00 0.00 0.00 35 994.8
20260504221033 72 176 2.0 2.0 0.00 0.00 0.00 34 994.9
20260504220045 72 211 4.0 6.0 0.00 0.00 0.00 36 994.7
20260504214022 72 219 2.0 3.0 0.00 0.00 0.00 36 995.0
20260504213034 73 211 2.0 5.0 0.00 0.00 0.00 36 995.0
20260504211024 74 169 4.0 5.0 0.00 0.00 0.00 36 995.1
20260504205025 75 5 3.0 4.0 0.00 0.00 0.00 38 994.9
20260504204034 75 134 1.0 2.0 0.00 0.00 0.00 37 995.3
20260504203026 74 236 4.0 6.0 0.00 0.00 0.00 36 995.5
20260504202024 73 192 3.0 5.0 0.00 0.00 0.00 36 995.3
20260504201016 73 137 4.0 4.0 0.00 0.00 0.00 37 995.8
20260504200030 75 255 3.0 3.0 0.00 0.00 0.00 42 995.6
20260504195046 74 234 2.0 3.0 0.00 0.00 0.00 37 995.8
20260504194017 74 267 3.0 4.0 0.00 0.00 0.00 38 995.9
20260504193039 74 152 1.0 2.0 0.00 0.00 0.00 40 996.1
20260504192021 74 277 2.0 3.0 0.00 0.00 0.00 43 996.1
20260504191017 71 196 5.0 10.0 0.00 0.00 0.00 41 996.4
20260504190044 73 224 5.0 9.0 0.00 0.00 0.00 42 996.4
20260504185042 72 176 1.0 2.0 0.00 0.00 0.00 48 996.7
20260504184016 72 220 2.0 3.0 0.00 0.00 0.00 45 996.8
20260504183031 73 322 3.0 5.0 0.00 0.00 0.00 49 996.7
20260504182015 72 175 2.0 3.0 0.00 0.00 0.00 47 997.0
20260504181038 72 139 2.0 4.0 0.00 0.00 0.00 46 996.9
20260504180044 71 293 3.0 4.0 0.00 0.00 0.00 47 996.9
20260504175017 72 225 3.0 5.0 0.00 0.00 0.00 46 997.1
20260504174028 72 340 4.0 6.0 0.00 0.00 0.00 51 997.3
20260504173005 70 229 4.0 5.0 0.00 0.00 0.00 47 997.2
20260504151010 64 248 5.0 7.0 0.00 0.00 0.00 50 998.4
20260504141025 63 310 4.0 5.0 0.00 0.00 0.00 52 998.1
20260504081028 50 179 3.0 4.0 0.00 0.00 0.00 59 999.5
20260504050001 51 134 2.0 3.0 0.00 0.00 0.00 59 1000.7
20260504045012 51 139 1.0 2.0 0.00 0.00 0.00 58 1000.6
20260504044025 52 179 0.0 0.0 0.00 0.00 0.00 58 1000.6
20260504043030 52 208 2.0 3.0 0.00 0.00 0.00 57 1000.9
20260504042028 52 177 1.0 2.0 0.00 0.00 0.00 57 1000.6
20260504041033 52 194 2.0 3.0 0.00 0.00 0.00 56 1000.8
20260504040033 52 152 2.0 3.0 0.00 0.00 0.00 56 1000.7
20260504035029 53 179 2.0 3.0 0.00 0.00 0.00 56 1000.6
20260504034009 52 300 3.0 4.0 0.00 0.00 0.00 57 1000.6
20260504032022 53 80 1.0 2.0 0.00 0.00 0.00 57 1000.7
20260504031033 53 171 1.0 2.0 0.00 0.00 0.00 57 1000.5
20260504025022 54 196 4.0 7.0 0.00 0.00 0.00 55 1000.3
20260504024007 53 227 2.0 3.0 0.00 0.00 0.00 56 1000.8
20260504023008 53 112 2.0 3.0 0.00 0.00 0.00 56 1001.0